www.pogodaiklimat.ru

Погода и климат >> Архив погоды >> Турция >> Дикили


ПОГОДА в Дикили

  • Прогноз погоды в Дикили
  • Монитор погоды в Дикили

АРХИВ ПОГОДЫ в Дикили

Время (UTC), дата Ветер
(напр.,м/с)
 
Видим.   Явления Облачность Т
(С)
Тd
(С)
f
(%)
Тe
(С)
Тes
(С)
Комфортность P
(гПа)
Po
(гПа)
Тmin
(С)
Tmax
(С)
R
(мм)
R24
(мм)
S
(см)
06 12.09 ЮВ 1
{3}
20 км ясно +23.5 +16.6 65 +27 +31 душно 1016.4 1016.0 +20.2
09 12.09 З 2
{3}
20 км 3/0
[Ci fib]
+23.8 +18.1 70 +28 +40 душно 1016.7 1016.3
12 12.09 ЮЗ 4
{6}
20 км 3/0
[Ci fib]
+25.1 +18.6 67 +30 +37 душно 1015.6 1015.2
15 12.09 З 5
{7}
20 км ясно +26.3 +18.0 60 +31 +32 душно 1014.1 1013.7
18 12.09 ЮВ 2
{7}
20 км ясно +25.7 +13.9 48 +28 +28 жарко 1015.6 1015.2 +28.4
06 13.09 штиль 0
{2}
20 км 6/4 1140 м
[Cu med, cong Ac inh]
+22.5 +16.1 67 +27 +29 душно 1014.5 1014.1 +20.5
09 13.09 СВ 1
{5}
20 км 9/5 1140 м
[Cu med, cong Ac As]
+25.1 +14.3 51 +28 +31 жарко 1015.1 1014.7
12 13.09 ЮЗ 1
{5}
20 км 9/5 1110 м
[Cu med, cong Ac As]
+26.4 +16.7 55 +30 +33 душно 1014.6 1014.2
15 13.09 В 2
{5}
20 км 9/4 1200 м
[Cu med, cong Ac inh Cs]
+28.0 +14.9 45 +31 +31 душно 1013.9 1013.5
18 13.09 В 2-7
{8}
20 км 8/4 1200 м
[Cu med, cong Ac inh Cs]
+25.4 +7.4 32 +25 +25 комфорт 1015.7 1015.3 +29.7
06 14.09 В 2
{6}
20 км 3/3 1200 м
[Cu hum]
+24.6 +9.6 39 +25 +28 комфорт 1016.8 1016.4 +21.6
09 14.09 СВ 2
{5}
20 км 4/4 1200 м
[Cu hum]
+28.0 +11.0 35 +29 +36 жарко 1015.9 1015.5
12 14.09 СВ 3
{6}
20 км 3/3 1200 м
[Cu hum]
+30.6 +9.4 27 +30 +37 жарко 1014.8 1014.4
15 14.09 СВ 3
{7}
20 км 3/3 1200 м
[Cu hum]
+28.8 +9.4 30 +29 +30 жарко 1014.1 1013.7
18 14.09 С 1
{7}
20 км ясно +24.3 +9.7 40 +25 +25 комфорт 1016.2 1015.8 +31.4
06 15.09 В 3
{11}
20 км ясно +25.5 +10.0 38 +26 +29 жарко 1018.6 1018.2 +21.5
09 15.09 В 3
{9}
20 км ясно +29.9 +8.8 27 +29 +41 жарко 1018.1 1017.7
12 15.09 С 3
{10}
20 км 5/5 1200 м
[Cu hum]
+29.7 +12.9 36 +31 +36 жарко 1017.1 1016.7
15 15.09 С 3
{8}
20 км 3/3 1200 м
[Cu hum]
+28.5 +11.9 36 +30 +30 жарко 1016.5 1016.1
18 15.09 В 2
{8}
20 км ясно +24.9 +11.0 42 +26 +26 жарко 1017.3 1016.9 +31.7 0.0
06 16.09 С 1
{5}
20 км ясно +20.5 +14.4 68 +25 +28 комфорт 1016.4 1016.0 +18.1
09 16.09 ЮЗ 1
{2}
20 км ясно +21.5 +16.1 71 +25 +40 комфорт 1015.6 1015.2
12 16.09 ЮЗ 3
{4}
20 км 4/0
[Ci fib]
+23.1 +18.5 75 +29 +38 очень
душно
1013.8 1013.4
15 16.09 З 3
{8}
20 км 4/0
[Ci fib]
+24.3 +14.4 54 +27 +28 жарко 1012.9 1012.5
18 16.09 ЮЗ 2
{8}
20 км 5/0
[Ci sp]
+22.5 +16.6 69 +27 +27 душно 1013.4 1013.0 +24.6
06 17.09 В 2
{3}
20 км 8/0
[Ac trans Cs]
+20.2 +12.7 62 +23 +25 комфорт 1014.9 1014.5 +17.1
09 17.09 СЗ 3
{4}
20 км 4/0
[Ci fib]
+23.2 +16.1 64 +28 +38 душно 1015.2 1014.8
12 17.09 З 1
{4}
20 км ясно +24.1 +17.4 66 +28 +41 душно 1014.2 1013.8
15 17.09 З 3
{5}
20 км ясно +24.7 +15.9 58 +28 +29 душно 1013.3 1012.9
18 17.09 В 1
{5}
20 км ясно +21.6 +14.3 63 +25 +25 комфорт 1013.9 1013.5 +26.3
06 18.09 СВ 1
{4}
20 км ясно +20.3 +9.2 49 +23 +27 комфорт 1014.6 1014.2 +16.8
09 18.09 З 1
{3}
20 км ясно +22.9 +15.8 64 +27 +41 душно 1014.7 1014.3
12 18.09 З 1
{4}
20 км ясно +25.6 +14.4 50 +28 +41 жарко 1013.8 1013.4
15 18.09 З 4
{7}
20 км ясно +25.7 +16.6 57 +29 +30 душно 1013.3 1012.9
18 18.09 В 1
{7}
20 км ясно +22.0 +11.7 52 +24 +24 комфорт 1014.2 1013.8 +27.3

 

Местоположение метеостанции Дикили (Турция): широта 39.05 долгота 26.87 высота над уровнем моря 3 м.

В архиве по умолчанию представлена погода в Дикили за последнюю неделю. Архивные данные за месяц целиком и за предыдущие месяцы, начиная с января 2011 года, Вы можете получить, выбрав интересующий диапазон дат из раскрывающегося списка и нажав кнопку "Ввод!".


*Определитесь, кто Вы:
робот инопланетянин человек

Внимание! Время в таблицах - всемирное. Для получения местного времени необходимо прибавить поправку, которая равна 2 ч.

Смотрите также архив погоды в соседних городах и на ближайших метеорологических станциях:

Погода в Митилини (Греция) (23 км)
Погода в Айвалыке (Турция) (31 км)
Погода в Измир / Сигли (Турция) (63 км)
Погода в Манисе (Турция) (68 км)
Погода в Измире (Турция) (74 км)
Погода в Акхисаре (Турция) (86 км)
Погода в Измир аэропорту (Турция) (90 км)
Погода в Чешме (Турция) (97 км)
Погода на Хиосе (Греция) (103 км)
Погода в Балыкесире (Турция) (110 км)

Пояснения к столбцам:

Ветер - указаны скорость ветра в м/с - средняя за 10 мин, порывы в срок и между сроками (в фигурных скобках) и направление, откуда дует ветер: С - северный, СВ - северо-восточный, В - восточный, ЮВ - юго-восточный, Ю - южный, ЮЗ - юго-западный, З - западный, СЗ - северо-западный.
Видимость - горизонтальная дальность видимости в метрах или километрах. При видимости от 1 до 10 км при отсутствии осадков обычно наблюдается дымка, при ухудшении видимости до 1 км и менее - туман. В сухую погоду видимость может ухудшаться дымом, пылью или мглою.
Явления - указаны атмосферные явления, наблюдавшиеся в срок или в последний час перед сроком; фигурными скобками обозначены явления, наблюдавшиеся между сроками (за 1-3 часа до срока); квадратными скобками обозначены град или гололедные отложения с указанием их диаметра в мм.
Облачность - указаны через наклонную черту общая и нижняя облачность в баллах и высота нижней границы облаков в метрах; квадратными скобками обозначены формы облаков: Ci - перистые, Cs - перисто-слоистые, Cc - перисто-кучевые, Ac - высококучевые, As - высокослоистые, Sc - слоисто-кучевые, Ns - слоисто-дождевые, Cu - кучевые, Cb - кучево-дождевые. Подробнее классификацию облаков см. в Атласе облаков (PDF).
T - Температура воздуха - температура, измеренная на высоте 2 м над землей.
Td - Температура точки росы - температура, при понижении до которой содержащийся в воздухе водяной пар достигнет насыщения.
f - Относительная влажность воздуха - влажноcть воздуха, измеренная на высоте 2 м над землей.
Te - Эффективная температура - температура, которую ощущает одетый по сезону человек в тени. Характеристика душности погоды. При расчете учитывается влияние влажности воздуха и скорости ветра на теплоощущения человека.
Tes - Эффективная температура на солнце - температура, которую ощущает человек, с поправкой на солнечный нагрев. Характеристика знойности погоды. Зависит от высоты солнца над горизонтом, облачности и скорости ветра. Ночью, в пасмурную погоду, а также при ветре 12 м/с и более поправка равна нулю.
P - Атмосферное давление - приведенное к уровню моря атмосферное давление.
Po - Атмосферное давление - измеренное на уровне метеостанции атмосферное давление.
Tmin - Минимальная температура - минимум температуры воздуха на высоте 2 м над землей.
Tmax - Максимальная температура - максимум температуры воздуха на высоте 2 м над землей.
R - Количество осадков - Количество выпавших осадков за период времени, мм. При наведении курсора мыши на число - период времени, за который выпало указанное количество осадков.
R24 - Количество осадков - Количество выпавших осадков за 24 часа, мм.
S - Снежный покров - Высота снежного покрова, см. При наведении курсора мыши на число - состояние снежного покрова и степень покрытия местности в баллах.